Back to catalog

JACK-001

AliveScienceSSO
NORAD 64547·PAYLOAD·🇰🇷 South Korea
This satellite name has not been confirmed by official sources yet.

Launched Jun 23, 2025 from Vandenberg Space Force Base

Loading…

Next Passes (next 24 hours)

TLE

FreshSource: Space-Track

Epoch: Sep 14, 2026, 02:48 UTC

1 64547U 25135V   26257.11698868  .00007261  00000-0  28262-3 0  9990
2 64547  97.4705  12.7347 0000665  85.7472 274.3842 15.26303675 68488

Track JACK-001 in real time with AllMySat

Download on the App Store